PEGASUS R/B

Satellite information

Favourite Embed

Satellite Type and Status

ROCKET BODYIN ORBIT

Key statistics

Satellite PEGASUS R/B at a glance.

Uptime

9162

Days in orbit

Revolutions

≈ 14.1

Per day

Orbit

LEO

Low Earth Orbit

Inclination

68.9

Latest

Satellite identification and parameters

Extended collection of information and parameters for PEGASUS R/B.

Object identification

Identified? True

Debris? False

Object name: PEGASUS R/B

International designator: 2000-030B

Object number (NORAD): 26375

Object ID (CCSDS): 26375

Country: UNITED STATES OF AMERICA (US)

Current information (Y/N): Y

RCS size: LARGE

Orbital parameters

Period: 101.795 minutes

Inclination: 68.9444 deg

SMA: 7221.782 km

Apoapsis: 1278.29 km

Periapsis: 409.004 km

RAAN: 215.8179 deg

Eccentricy: 0.060185

Argument of periapsis: 123.5539 deg

Mean anomaly: 242.4549 deg

Mean motion: 14.14608206 rev/day

Mean motion (dot): 0.00002813 rev/day2

B* drag term: 0.00024075 1/REarth

Two-line elements (TLE)

Creation date: July 8, 2025, 2:27 a.m.

Reference frame: TEME

Reference center: EARTH

Epoch: July 7, 2025, 9:04 p.m. UTC

TLE line 0: 0 PEGASUS R/B

TLE line 1: 1 26375U 00030B 25188.87792605 .00002813 00000-0 24075-3 0 9999

TLE line 2: 2 26375 68.9444 215.8179 0601850 123.5539 242.4549 14.14608206616129

Live tracking on map

Real-time ground track for satellite PEGASUS R/B.

In-orbit conjunctions

A list of the most updated potential collisions computed for object PEGASUS R/B.

Target Orbit TCA Probability of collision Miss distance Type
CZ-6A DEB LEO 2025-05-09 08:26:16 0.0002925631 95.0 (m) DEBRIS
FENGYUN 1C DEB SSO 2025-03-09 04:31:16 0.0004158797 225.0 (m) DEBRIS

Associated space launch

PEGASUS R/B was lifted into orbit during the mission ‘Pegasus XL | Tri-Services Experiments Platform-5 (TSX-5)’, on board a Pegasus XL space rocket.

The launch took place on June 7, 2000, 1:19 p.m. from Vandenberg Space Force Base.

For more information about the launch, click the button.

Launch to space Pegasus XL | Tri-Services Experiments Platform-5 (TSX-5)
Pegasus XL | Tri-Services Experiments Platform-5 (TSX-5)

Agency: N/A

Status: Launch Successful

Launch date: June 7, 2000, 1:19 p.m. UTC

Rocket: Pegasus XL

Launch pad: Vandenberg Space Force Base

Location: Air launch to orbit

...

Latest news about this satellite

There are no fresh news available about this satellite. Check back as we update our databases every day.


Newsletter sign-up

Weekly statistics, charts and insights to help you stay on top of the space industry.